This demonstration page uses our WeatherBlox Daily Observations layout. Learn more.

Left ArrowRight Arrow

Hourly Observations for July 15, 2022

Temp ( °F °C ) Dew Point ( °F °C ) Humidity (%) Winds ( mph kmh ) Pressure ( in mb ) Visibility ( mi km ) Precip ( " mm )
12:59 am 00:59 Mostly Cloudy 79 26.1 75 23.9 88 88 SSW 5 7 30.09 1019 9 14 0.00 0.00
1:59 am 01:59 Mostly Cloudy 79 26.1 75 23.9 88 88 SW 3 6 30.09 1019 8 13 0.00 0.00
2:59 am 02:59 Mostly Cloudy 78 25.6 75 23.9 90 90 SW 3 6 30.09 1019 8 13 0.00 0.00
3:59 am 03:59 Mostly Cloudy 77 25 74 23.3 90 90 SW 5 7 30.07 1018 8 13 0.00 0.00
4:59 am 04:59 Mostly Cloudy 77 25 74 23.3 90 90 WSW 3 6 30.07 1018 9 14 0.00 0.00
5:59 am 05:59 Mostly Cloudy 77 25 74 23.3 90 90 WSW 5 7 30.09 1019 8 13 0.00 0.00
6:59 am 06:59 Cloudy 75 23.9 74 23.3 96 96 Calm 30.09 1019 7 11 0.00 0.00
7:59 am 07:59 Cloudy 77 25 75 23.9 94 94 N 5 7 30.09 1019 7 11 0.00 0.00
8:59 am 08:59 Cloudy 77 25 75 23.9 94 94 E 10 17 30.12 1020 8 13 0.00 0.00
9:59 am 09:59 Cloudy 81 27.2 73 22.8 77 77 VRB 3 6 30.11 1020 8 13 0.00 0.00
10:59 am 10:59 Cloudy 81 27.2 73 22.8 77 77 Calm 30.13 1020 9 14 0.00 0.00
11:59 am 11:59 Cloudy 81 27.2 73 22.8 77 77 SE 6 9 30.12 1020 8 13 0.00 0.00
12:52 pm 12:52 Cloudy 81 27.2 73 22.8 77 77 SE 7 11 30.12 1020 8 13 0.00 0.00
12:59 pm 12:59 Cloudy 82 27.8 73 22.8 74 74 SE 8 13 30.12 1020 8 13 0.00 0.00
1:59 pm 13:59 Mostly Cloudy 84 28.9 73 22.8 70 70 S 8 13 30.09 1019 9 14 0.00 0.00
2:59 pm 14:59 Mostly Cloudy 86 30 73 22.8 65 65 Calm 30.07 1018 9 14 0.00 0.00
3:40 pm 15:40 Cloudy with Thunderstorms 84 28.9 72 22.2 67 67 WSW 5 7 30.09 1019 4 6 0.01 0.25
3:59 pm 15:59 Cloudy with Thunderstorms 82 27.8 67 19.4 60 60 N 14 22 30.10 1019 4 6 0.04 1.02
4:07 pm 16:07 Cloudy with Thunderstorms 82 27.8 67 19.4 60 60 NNW 10 17 30.11 1020 3 4 0.05 1.27
4:21 pm 16:21 Cloudy with Thunderstorms 82 27.8 67 19.4 60 60 NNE 6 9 30.12 1020 7 11 0.06 1.52
4:57 pm 16:57 Mostly Cloudy 75 24 72 22 89 89 S 6 9 30.10 1019 9 14 0.06 1.52
4:59 pm 16:59 Mostly Cloudy 75 23.9 71 21.7 88 88 S 6 9 30.09 1019 8 13 0.06 1.52
5:59 pm 17:59 Mostly Cloudy 75 23.9 71 21.7 88 88 NNW 3 6 30.09 1019 10 16 0.00 0.00
6:59 pm 18:59 Mostly Cloudy 75 23.9 70 21.1 84 84 NW 8 13 30.11 1020 9 14 0.00 0.00
7:59 pm 19:59 Mostly Cloudy 76 24.4 69 20.6 79 79 NNW 6 9 30.11 1020 10 16 0.00 0.00
8:59 pm 20:59 Mostly Cloudy 75 23.9 69 20.6 82 82 ESE 3 6 30.10 1019 10 16 0.00 0.00
9:59 pm 21:59 Mostly Cloudy 75 23.9 69 20.6 82 82 Calm 30.11 1020 9 14 0.00 0.00
10:59 pm 22:59 Mostly Cloudy 75 23.9 68 20 79 79 Calm 30.11 1020 8 13 0.00 0.00
11:59 pm 23:59 Mostly Cloudy 75 23.9 68 20 79 79 Calm 30.11 1020 9 14 0.00 0.00

Powered by AerisWeather